Waarnemingen

Advertentie
Mijn weer
Kinloss, Groot Brittannië (3066): temperatuur & dauwpunt: 31.05.2020 02:00:00 - 06.06.2020 02:00:00 (BST)Kinloss, Groot Brittannië (3066): temperatuur -20cm & temperatuur -100cm: 31.05.2020 02:00:00 - 06.06.2020 02:00:00 (BST)Kinloss, Groot Brittannië (3066): windsnelheid & windstoten: 31.05.2020 02:00:00 - 06.06.2020 02:00:00 (BST)Kinloss, Groot Brittannië (3066): windrichting: 31.05.2020 02:00:00 - 06.06.2020 02:00:00 (BST)Kinloss, Groot Brittannië (3066): luchtdruk: 31.05.2020 02:00:00 - 06.06.2020 02:00:00 (BST)Kinloss, Groot Brittannië (3066): zicht: 31.05.2020 02:00:00 - 06.06.2020 02:00:00 (BST)Kinloss, Groot Brittannië (3066): Zonneschijnduur: 31.05.2020 02:00:00 - 06.06.2020 02:00:00 (BST)Kinloss, Groot Brittannië (3066): neerslag: 31.05.2020 02:00:00 - 06.06.2020 02:00:00 (BST)
Datum & Tijd tt [°C] td [°C] tt -20cm [°C] tt -100cm [°C] ff [km/u] ff [kn] fx [km/u] fx [kn] dd ppp [hPa] vv [km] sd [min] rr [mm]
06.06.2020 02:00:00 9,6 8,5 - - 26 14 - - NNO 991,2 19 0 0,4
06.06.2020 01:00:00 9,7 8,7 - - 26 14 - - NNO 990,5 14 - 0,4
06.06.2020 00:00:00 9,8 8,6 - - 26 14 - - NNO 989,9 13 0 0,6
05.06.2020 23:00:00 9,9 9,2 - - 28 15 46 25 NNO 989,3 10 0 2,0
05.06.2020 22:00:00 10,3 9,4 - - 34 18 54 29 N 988,8 20 0 1,6
05.06.2020 21:00:00 9,8 9,4 - - 34 18 52 28 NW 988,3 3,4 0 5,2
05.06.2020 20:00:00 8,6 7,7 - - 41 22 59 32 WNW 988,3 6 0 3,2
05.06.2020 19:00:00 7,9 6,7 - - 44 24 65 35 WNW 988,5 11 0 1,6
05.06.2020 18:00:00 7,5 5,9 - - 42 23 59 32 WNW 988,9 15 0 2,2
05.06.2020 17:00:00 7,6 5,7 - - 44 24 63 34 WNW 989,9 10 0 1,6
05.06.2020 16:00:00 7,9 6,3 - - 41 22 59 32 WNW 990,8 10 0 1,2
05.06.2020 15:00:00 8,2 5,8 - - 41 22 63 34 NW 991,5 13 0 0,6
05.06.2020 14:00:00 9,4 5,2 - - 42 23 63 34 NW 991,9 29 6 0,0
05.06.2020 13:00:00 8,9 6,3 - - 41 22 63 34 NNW 992,4 24 6 0,2
05.06.2020 12:00:00 10,3 4,7 - - 42 23 65 35 NW 992,9 30 42 0,0
05.06.2020 11:00:00 9,0 6,1 - - 37 20 65 35 NW 993,7 30 30 0,4
05.06.2020 10:00:00 9,0 4,9 12,2 10,7 34 18 55 30 NW 994,3 30 24 0,2
05.06.2020 09:00:00 7,7 4,6 - - 31 17 50 27 NW 995,0 6 0 0,0
05.06.2020 08:00:00 7,7 4,4 - - 29 16 46 25 WNW 995,4 35 0 0,0
05.06.2020 07:00:00 7,7 4,6 - - 22 12 - - WNW 995,8 30 6 0,0
05.06.2020 06:00:00 6,6 4,0 - - 22 12 46 25 WNW 996,2 35 0 0,2
05.06.2020 05:00:00 6,6 3,9 - - 34 18 - - NW 996,6 35 0 0,0
05.06.2020 04:00:00 6,7 3,6 - - 29 16 - - NW 996,9 30 0 0,0
05.06.2020 03:00:00 6,6 3,8 - - 24 13 - - WNW 997,5 35 0 0,0
05.06.2020 02:00:00 6,6 3,8 - - 22 12 - - WNW 998,2 30 0 0,0
05.06.2020 01:00:00 6,9 3,9 - - 21 11 - - NW 998,9 35 - 0,2
05.06.2020 00:00:00 7,6 4,0 - - 24 13 - - NW 999,6 35 0 0,0
04.06.2020 23:00:00 7,9 4,7 - - 28 15 - - NNW 1000,0 35 0 0,0
04.06.2020 22:00:00 8,1 4,2 - - 24 13 - - NNW 1000,3 35 0 0,0
04.06.2020 21:00:00 8,8 4,7 - - 22 12 - - NNW 1000,4 35 0 0,2
04.06.2020 20:00:00 7,8 5,4 - - 18 10 - - NNW 1000,7 7 12 2,0
04.06.2020 19:00:00 10,0 4,6 - - 9 5 - - NNW 1001,0 40 60 0,0
04.06.2020 18:00:00 10,5 4,9 - - 8 4 - - N 1001,3 10 60 0,0
04.06.2020 17:00:00 10,9 5,1 - - 15 8 - - NNO 1001,7 10 30 0,0
04.06.2020 16:00:00 10,9 5,5 - - 13 7 - - NNO 1002,1 35 18 0,0
04.06.2020 15:00:00 10,2 6,2 - - 15 8 - - NO 1002,4 30 18 0,0
04.06.2020 14:00:00 8,6 6,4 - - 15 8 - - ONO 1002,9 22 0 0,0
04.06.2020 13:00:00 8,0 6,1 - - 21 11 - - NO 1003,2 10 0 0,0
04.06.2020 12:00:00 8,8 7,1 - - 16 9 - - ONO 1003,0 10 0 0,0
04.06.2020 11:00:00 8,4 7,4 - - 11 6 - - O 1003,2 17 0 1,4
04.06.2020 10:00:00 8,9 6,3 12,4 10,7 5 3 - - NO 1003,6 26 0 0,0
04.06.2020 09:00:00 9,0 5,1 - - 4 2 - - ZW 1004,0 28 0 0,0
04.06.2020 08:00:00 8,7 4,4 - - 8 4 - - WZW 1004,6 35 0 0,0
04.06.2020 07:00:00 7,9 4,6 - - 5 3 - - ZZW 1005,3 35 0 0,0
04.06.2020 06:00:00 7,4 4,4 - - 5 3 - - ZZW 1006,0 35 0 0,0
04.06.2020 05:00:00 7,0 4,1 - - 8 4 - - ZZW 1007,0 40 0 0,0
04.06.2020 04:00:00 6,7 3,8 - - 9 5 - - ZZW 1007,9 40 0 0,0
04.06.2020 03:00:00 7,3 5,1 - - 11 6 - - W 1008,8 30 0 0,0
04.06.2020 02:00:00 8,0 4,3 - - 21 11 - - NW 1010,0 30 0 0,0
04.06.2020 01:00:00 8,6 3,9 - - 15 8 - - WNW 1010,8 30 - 0,0
04.06.2020 00:00:00 8,9 4,9 - - 11 6 - - NW 1011,7 35 0 0,0
03.06.2020 23:00:00 8,9 5,2 - - 9 5 - - N 1012,7 30 0 0,0
03.06.2020 22:00:00 9,2 4,6 - - 15 8 - - N 1013,6 35 0 0,0
03.06.2020 21:00:00 9,4 5,1 - - 22 12 - - N 1014,2 35 0 0,0
03.06.2020 20:00:00 10,0 4,6 - - 18 10 - - N 1014,5 35 0 0,0
03.06.2020 19:00:00 10,5 4,4 - - 22 12 - - N 1015,1 35 0 0,0
03.06.2020 18:00:00 11,2 4,6 - - 24 13 - - N 1015,5 35 6 0,0
03.06.2020 17:00:00 12,3 5,9 - - 15 8 - - NNO 1016,0 10 54 0,0
03.06.2020 16:00:00 12,3 6,4 - - 21 11 - - NNO 1016,5 35 54 0,0
03.06.2020 15:00:00 11,7 6,1 - - 21 11 - - NNO 1017,0 35 0 0,0
03.06.2020 14:00:00 11,2 6,3 - - 22 12 - - NNO 1017,4 35 0 0,0
03.06.2020 13:00:00 11,2 5,5 - - 22 12 - - N 1017,8 30 0 0,0
03.06.2020 12:00:00 10,3 5,0 - - 22 12 - - N 1018,1 35 0 0,0
03.06.2020 11:00:00 10,1 5,0 - - 22 12 - - N 1018,6 35 0 0,0
03.06.2020 10:00:00 9,7 4,9 12,7 10,7 24 13 - - N 1018,8 35 0 0,0
03.06.2020 09:00:00 9,6 4,2 - - 24 13 - - N 1018,9 30 6 0,0
03.06.2020 08:00:00 9,3 5,3 - - 22 12 - - N 1019,2 30 0 0,0
03.06.2020 07:00:00 8,9 4,8 - - 24 13 - - N 1019,3 30 0 0,0
03.06.2020 06:00:00 9,1 4,9 - - 22 12 - - N 1019,4 30 0 0,0
03.06.2020 05:00:00 9,0 5,9 - - 22 12 - - N 1019,3 28 0 0,0
03.06.2020 04:00:00 8,9 6,0 - - 22 12 - - N 1019,6 30 0 0,0
03.06.2020 03:00:00 9,1 5,6 - - 22 12 - - NNO 1019,9 30 0 0,0
03.06.2020 02:00:00 8,9 5,9 - - 26 14 - - NNO 1020,1 30 0 0,2
03.06.2020 01:00:00 9,0 6,2 - - 22 12 - - NNO 1020,4 30 - 0,0
03.06.2020 00:00:00 9,1 6,1 - - 24 13 - - NNO 1020,6 28 0 0,0
02.06.2020 23:00:00 9,4 7,3 - - 18 10 - - NNO 1020,6 23 0 0,0
02.06.2020 22:00:00 9,4 7,4 - - 24 13 - - NNO 1020,5 24 0 0,6
02.06.2020 21:00:00 9,6 8,6 - - 21 11 - - NO 1020,4 13 0 0,2
02.06.2020 20:00:00 10,1 9,1 - - 22 12 - - NO 1020,1 19 0 0,2
02.06.2020 19:00:00 10,4 9,7 - - 21 11 - - NO 1019,8 13 0 1,4
02.06.2020 18:00:00 10,7 10,1 - - 16 9 - - NO 1019,7 18 0 1,8
02.06.2020 17:00:00 11,1 10,4 - - 13 7 - - NO 1019,9 2,9 0 0,8
02.06.2020 16:00:00 11,9 10,7 - - 11 6 - - ONO 1020,2 16 0 0,0
02.06.2020 15:00:00 12,1 10,7 - - 9 5 - - ONO 1020,6 15 0 0,0
02.06.2020 14:00:00 12,4 11,1 - - 9 5 - - O 1021,0 13 0 0,0
02.06.2020 13:00:00 12,2 11,2 - - 13 7 - - ONO 1021,2 11 0 0,8
02.06.2020 12:00:00 12,5 10,4 - - 11 6 - - O 1021,5 17 0 0,0
02.06.2020 11:00:00 13,0 10,4 - - 13 7 - - ONO 1021,8 18 0 0,0
02.06.2020 10:00:00 13,4 10,2 - - 13 7 - - ONO 1021,8 21 0 -
02.06.2020 09:00:00 13,6 10,3 - - 9 5 - - O 1021,7 20 0 -
02.06.2020 08:00:00 13,6 9,7 - - 9 5 - - O 1021,8 21 0 0,0
02.06.2020 07:00:00 13,3 9,7 - - 5 3 - - OZO 1022,0 20 0 0,0
02.06.2020 06:00:00 11,8 9,1 - - 5 3 - - OZO 1022,1 8 0 0,0
02.06.2020 05:00:00 11,4 8,8 - - 2 1 - - ONO 1022,4 21 0 0,0
02.06.2020 04:00:00 12,1 9,1 - - 4 2 - - WZW 1022,8 24 0 0,0
02.06.2020 03:00:00 12,0 10,0 - - 8 4 - - W 1023,1 22 0 0,0
02.06.2020 02:00:00 13,3 9,3 - - 11 6 - - ZW 1023,2 23 0 0,0
02.06.2020 01:00:00 13,4 10,1 - - 13 7 - - WZW 1023,7 22 - 0,0
02.06.2020 00:00:00 12,9 10,3 - - 16 9 - - ZW 1023,9 20 0 0,0
01.06.2020 23:00:00 13,0 11,3 - - 16 9 - - ZW 1024,0 19 0 0,0
01.06.2020 22:00:00 13,6 11,7 - - 9 5 - - W 1023,9 19 0 0,0
01.06.2020 21:00:00 15,2 11,6 - - 5 3 - - NNW 1023,4 21 36 0,0
01.06.2020 20:00:00 16,8 10,8 - - 15 8 - - N 1023,3 24 36 0,0
01.06.2020 19:00:00 20,9 8,8 - - 21 11 - - ONO 1023,6 28 6 0,0
01.06.2020 18:00:00 20,5 11,6 - - 13 7 - - NO 1023,9 30 18 0,0
01.06.2020 17:00:00 23,1 10,3 - - 16 9 - - NNO 1024,0 28 60 0,0
01.06.2020 16:00:00 24,4 6,4 - - 11 6 - - NO 1024,5 30 60 0,0
01.06.2020 15:00:00 22,7 7,0 - - 13 7 - - N 1024,9 10 60 0,0
01.06.2020 14:00:00 22,6 8,8 - - 15 8 - - N 1025,2 30 60 0,0
01.06.2020 13:00:00 21,6 9,8 - - 13 7 - - N 1025,4 10 60 0,0
01.06.2020 12:00:00 20,5 9,3 - - 11 6 - - NNW 1025,9 10 60 0,0
01.06.2020 11:00:00 19,4 10,4 - - 8 4 - - N 1026,1 10 60 0,0
01.06.2020 10:00:00 17,2 10,0 12,7 10,2 9 5 - - N 1026,2 30 60 0,0
01.06.2020 09:00:00 16,8 9,4 - - 2 1 - - OZO 1026,2 30 48 0,0
01.06.2020 08:00:00 14,8 8,3 - - 4 2 - - W 1026,3 30 54 0,0
01.06.2020 07:00:00 12,9 8,2 - - 4 2 - - WZW 1026,2 30 60 0,0
01.06.2020 06:00:00 9,6 6,7 - - 4 2 - - ZZW 1025,9 30 42 0,0
01.06.2020 05:00:00 8,2 5,4 - - 2 1 - - ZW 1025,9 29 0 0,0
01.06.2020 04:00:00 9,5 8,1 - - 4 2 - - W 1026,0 22 0 0,0
01.06.2020 03:00:00 10,3 6,1 - - 11 6 - - W 1025,9 30 0 0,0
01.06.2020 02:00:00 10,9 5,5 - - 13 7 - - WZW 1025,8 30 0 0,0
01.06.2020 01:00:00 12,1 5,8 - - 9 5 - - ZW 1025,9 30 - 0,0
01.06.2020 00:00:00 15,1 5,2 - - 9 5 - - ZZW 1025,7 30 0 0,0
31.05.2020 23:00:00 16,9 5,7 - - 13 7 - - Z 1025,4 30 0 0,0
31.05.2020 22:00:00 17,8 6,9 - - 9 5 - - Z 1025,2 30 24 0,0
31.05.2020 21:00:00 19,9 7,6 - - 18 10 - - ZO 1024,6 30 60 0,0
31.05.2020 20:00:00 21,2 7,9 - - 24 13 - - OZO 1024,3 30 60 0,0
31.05.2020 19:00:00 23,1 7,2 - - 18 10 - - ZO 1024,2 30 60 0,0
31.05.2020 18:00:00 23,5 5,0 - - 22 12 - - ZO 1024,2 30 60 0,0
31.05.2020 17:00:00 24,4 5,7 - - 21 11 - - ZZO 1024,5 28 60 0,0
31.05.2020 16:00:00 24,2 5,2 - - 22 12 - - ZO 1024,8 30 60 0,0
31.05.2020 15:00:00 24,5 5,6 - - 22 12 - - ZO 1025,2 30 60 0,0
31.05.2020 14:00:00 24,0 4,4 - - 21 11 - - ZZO 1025,5 30 60 0,0
31.05.2020 13:00:00 23,6 2,8 - - 24 13 46 25 ZZO 1026,0 29 60 0,0
31.05.2020 12:00:00 22,7 0,1 - - 31 17 48 26 ZZO 1026,0 30 60 0,0
31.05.2020 11:00:00 21,7 3,6 - - 21 11 - - ZO 1026,3 30 60 0,0
31.05.2020 10:00:00 20,0 5,8 12,7 10,0 15 8 - - ZZO 1026,5 28 60 0,0
31.05.2020 09:00:00 17,4 4,8 - - 13 7 - - ZZO 1026,7 30 60 0,0
31.05.2020 08:00:00 15,1 3,5 - - 13 7 - - ZO 1026,8 30 60 0,0
31.05.2020 07:00:00 12,6 1,6 - - 5 3 - - ZO 1026,7 30 60 0,0
31.05.2020 06:00:00 8,7 0,0 - - 4 2 - - WZW 1026,4 40 48 0,0
31.05.2020 05:00:00 9,1 -2,8 - - 2 1 - - ZZO 1026,0 35 0 0,0
31.05.2020 04:00:00 8,6 1,3 - - 5 3 - - ZO 1026,2 35 0 0,0
31.05.2020 03:00:00 10,0 -0,7 - - 2 1 - - N 1026,0 40 0 0,0
31.05.2020 02:00:00 12,7 -0,3 - - 8 4 - - Z 1026,0 35 0 0,0

tt = temperatuur
td = dauwpunt
tt -20cm = temperatuur -20cm
tt -100cm = temperatuur -100cm
ff = windsnelheid
fx = windstoten
dd = windrichting
ppp = luchtdruk
vv = zicht
sd = Zonneschijnduur
rr = neerslag

Weerstations in de omgeving